Probability
0 0 0 0 0 0 0 0 0 0 0 0 0 0 0 0 0 0 0 0 0 0 0 0 0 0 0 0 0 0 0 0 0 0 0 0 0 0 0 0 0 0 0 0
0 0 0 0 0 0 0 0 0 0 0 0 0 0 0 0 0 0 0 0 0 0 0 0 0 0 0 0 0 0 0 0 0 0 0 0 0 0 0 0 0 0 0 0
0 0 0 0 0 0 0 0 0 0 0 0 0 0 0 0 0 0 0 0 0 0 0 0 0 0 0 0 0 0 0 0 0 0 0 0 0 0 0 0 0 0 0 0
0 0 0 0 0 0 0 0 0 0 0 0 0 0 0 0 0 0 0 0 0 0 0 0 0 0 0 0 0 0 0 0 0 0 0 0 0 0 0 0 0 0 0 0
0 0 0 0 0 0 0 0 0 0 0 0 0 0 0 0 0 0 0 0 0 0 0 0 0 0 0 0 0 0 0 0 0 0 0 0 0 0 0 0 0 0 0 0
0 0 0 0 0 0 0 0 0 0 0 0 0 0 0 0 0 0 0 0 0 0 0 0 0 0 0 0 0 0 0 0 0 0 0 0 0 0 0 0 0 0 0 0
0 0 0 0 0 0 0 0 0 0 0 0 0 0 0 0 0 0 0 0 0 0 0 0 0 0 0 0 0 0 0 0 0 0 0 0 0 0 0 0 0 0 0 0
0 0 0 0 0 0 0 0 0 0 0 0 0 0 0 0 0 0 0 0 0 0 0 0 0 0 0 0 0 0 0 0 0 0 0 0 0 0 0 0 0 0 0 0
0 0 0 0 0 0 0 0 0 0 0 0 0 0 0 0 0 0 0 0 0 0 0 0 0 0 0 0 0 0 0 0 0 0 0 0 0 0 0 0 0 0 0 0
0 0 0 0 0 0 0 0 0 0 0 0 0 0 0 0 0 0 0 0 0 0 0 0 0 0 0 0 0 0 0 0 0 0 0 0 0 0 0 0 0 0 0 0
0 0 0 0 0 0 0 0 0 0 0 0 0 0 0 0 0 0 0 0 0 0 0 0 0 0 0 0 0 0 0 0 0 0 0 0 0 0 0 0 0 0 0 0
0 0 0 0 0 0 0 0 0 0 0 0 0 0 0 0 0 0 0 0 0 0 0 0 0 0 0 0 0 0 0 0 0 0 0 0 0 0 0 0 0 0 0 0
0 0 0 0 0 0 0 0 0 0 0 0 0 0 0 0 0 0 0 0 0 0 0 0 0 0 0 0 0 0 0 0 0 0 0 0 0 0 0 0 0 0 0 0
0 0 0 0 0 0 0 0 0 0 0 0 0 0 0 0 0 0 0 0 0 0 0 0 0 0 0 0 0 0 0 0 0 0 0 0 0 0 0 0 0 0 0 0
0 0 0 0 0 0 0 0 0 0 0 0 0 0 0 0 0 0 0 0 0 0 0 0 0 0 0 0 0 0 0 0 0 0 0 0 0 0 0 0 0 0 0 0
0 0 0 0 0 0 0 0 0 0 0 0 0 0 0 0 0 0 0 0 0 0 0 0 0 0 0 0 0 0 0 0 0 0 0 0 0 0 0 0 0 0 0 0
0 0 0 0 0 0 0 0 0 0 0 0 0 0 0 0 0 0 0 0 0 0 0 0 0 0 0 0 0 0 0 0 0 0 0 0 0 0 0 0 0 0 0 0
0 0 0 0 0 0 0 0 0 0 0 0 0 0 0 0 0 0 0 0 0 0 0 0 0 0 0 0 0 0 0 0 0 0 0 0 0 0 0 0 0 0 0 0
0 0 0 0 0 0 0 0 0 0 0 0 0 0 0 0 0 0 0 0 0 0 0 0 0 0 0 0 0 0 0 0 0 0 0 0 0 0 0 0 0 0 0 0
0 0 0 0 0 0 0 0 0 0 0 0 0 0 0 0 0 0 0 0 0 0 0 0 0 0 0 0 0 0 0 0 0 0 0 0 0 0 0 0 0 0 0 0
0 0 0 0 0 0 0 0 0 0 0 0 0 0 0 0 0 0 0 0 0 0 0 0 0 0 0 0 0 0 0 0 0 0 0 0 0 0 0 0 0 0 0 0
0 0 0 0 0 0 0 0 0 0 0 0 0 0 0 0 0 0 0 0 0 0 0 0 0 0 0 0 0 0 0 0 0 0 0 0 0 0 0 0 0 0 0 0
0 0 0 0 0 0 0 0 0 0 0 0 0 0 0 0 0 0 0 0 0 0 0 0 0 0 0 0 0 0 0 0 0 0 0 0 0 0 0 0 0 0 0 0
0 0 0 0 0 0 0 0 0 0 0 0 0 0 0 0 0 0 0 0 0 0 0 0 0 0 0 0 0 0 0 0 0 0 0 0 0 0 0 0 0 0 0 0
0 0 0 0 0 0 0 0 0 0 0 0 0 0 0 0 0 0 0 0 0 0 0 0 0 0 0 0 0 0 0 0 0 0 0 0 0 0 0 0 0 0 0 0
0 0 0 0 0 0 0 0 0 0 0 0 0 0 0 0 0 0 0 0 0 0 0 0 0 0 0 0 0 0 0 0 0 0 0 0 0 0 0 0 0 0 0 0
0 0 0 0 0 0 0 0 0 0 0 0 0 0 0 0 0 0 0 0 0 0 0 0 0 0 0 0 0 0 0 0 0 0 0 0 0 0 0 0 0 0 0 0
Wind_Speed
7 6 5 7 9 9 9 9 9 9 10 12 8 6 5 4 3 3 3 4 4 4 4 4 3 3 3 3 3 4 3 3 3 3 2 2 2 2 2 2 3 3 3 3
5 5 6 9 11 12 12 10 11 10 13 10 6 4 4 5 5 5 5 6 5 5 5 5 5 4 3 3 4 4 4 3 3 2 2 2 2 2 1 1 1 2 3 3
4 3 2 9 11 12 9 8 9 13 13 6 4 5 6 6 6 6 6 6 6 6 6 6 5 5 5 4 3 4 4 3 3 3 2 2 2 2 2 2 1 2 2 3
2 1 8 9 3 8 8 9 10 9 7 6 7 6 5 5 6 7 6 6 5 5 5 4 4 4 4 3 4 4 4 3 3 3 3 2 2 2 2 1 2 2 2 3
3 4 9 8 3 5 6 8 8 9 9 7 4 2 5 5 5 6 6 5 5 5 4 4 4 4 4 3 3 4 4 4 4 4 3 3 3 2 2 2 2 2 2 3
3 4 7 6 2 2 3 6 5 6 7 5 2 3 6 4 3 4 4 4 4 3 3 3 3 4 4 4 4 5 5 5 4 4 4 4 3 3 2 2 2 2 2 3
5 6 9 6 1 3 4 7 3 4 5 5 6 7 5 3 3 4 4 4 3 3 3 4 4 5 5 4 6 5 4 3 3 4 4 4 3 2 2 2 1 2 2 3
5 5 10 3 4 6 7 3 2 3 4 4 4 4 3 3 3 3 3 2 3 3 3 3 3 5 5 5 5 3 4 4 3 3 3 3 3 2 2 2 2 2 2 3
9 9 5 4 6 6 4 4 4 3 3 3 4 4 3 2 2 2 2 2 2 3 3 2 3 4 5 4 3 4 4 4 3 3 3 3 3 3 2 2 2 2 2 3
5 8 6 6 5 5 4 5 5 5 4 4 4 4 4 3 2 2 2 2 2 3 3 3 3 4 5 4 4 4 4 4 3 3 3 3 3 3 3 3 3 3 3 3
7 8 6 5 5 6 5 4 4 3 3 4 4 4 4 3 3 3 2 2 2 3 4 4 3 3 4 4 5 4 4 4 3 3 3 3 3 3 4 4 4 4 3 3
8 7 6 7 5 4 4 5 4 3 3 2 3 4 3 3 3 3 3 3 3 3 3 3 3 3 3 4 5 5 4 4 3 3 3 2 2 2 4 4 5 6 6 5
7 5 6 7 5 4 4 5 4 4 4 3 3 3 3 3 3 3 3 3 3 3 3 3 3 3 3 4 5 5 5 4 3 3 3 3 3 2 2 2 3 4 5 6
5 4 5 5 5 4 4 3 3 2 2 3 3 3 3 3 3 3 4 4 3 3 3 3 3 4 3 3 4 5 5 4 4 3 3 3 3 3 3 2 2 2 3 5
5 5 6 5 4 3 2 1 2 2 2 2 2 3 3 3 3 3 3 2 2 2 3 3 3 4 3 3 4 5 4 3 3 3 3 3 3 3 2 3 2 2 2 3
4 4 4 4 4 4 3 2 3 3 3 2 2 3 2 2 2 2 2 2 3 3 3 3 4 4 3 3 4 3 3 5 4 3 3 3 3 3 2 2 2 2 2 2
3 4 4 4 5 4 4 4 4 4 3 3 3 3 2 2 1 2 2 2 3 3 3 3 4 3 3 3 4 3 2 3 5 3 3 3 3 3 2 2 2 2 2 3
5 6 6 5 5 5 4 3 3 3 3 3 2 2 2 2 3 2 2 1 1 1 2 2 3 2 2 3 3 2 2 2 3 3 2 2 2 2 2 2 2 2 2 2
3 3 4 4 4 4 3 3 2 2 2 2 2 2 2 2 2 2 1 1 2 2 2 2 2 2 2 3 3 2 3 3 2 2 2 3 2 2 2 2 2 2 2 2
2 2 1 1 1 2 2 2 1 1 1 2 2 2 2 2 2 1 1 1 2 2 2 1 1 1 2 2 3 2 3 3 3 2 2 2 2 2 2 2 2 2 2 2
2 2 1 0 0 0 1 1 1 1 1 1 2 2 2 1 1 1 1 1 2 1 1 1 1 1 1 2 3 2 2 2 2 2 2 2 2 2 2 2 2 2 2 2
2 1 0 0 1 1 1 1 1 1 1 1 1 2 2 1 1 1 0 1 1 0 0 0 0 1 2 2 1 2 2 2 2 2 2 2 2 2 2 2 2 2 2 2
1 0 0 1 1 1 2 2 2 1 1 1 1 2 1 1 1 1 0 1 0 1 1 0 1 1 2 1 1 2 2 2 2 2 2 2 2 2 2 2 2 2 2 2
1 1 1 1 2 3 2 2 2 2 2 2 2 1 1 1 1 1 0 0 1 2 1 0 1 1 2 1 1 1 1 2 2 2 2 2 2 2 2 2 2 2 2 2
2 2 2 2 2 2 2 2 3 3 3 3 3 2 2 1 1 0 1 1 2 2 1 1 2 2 1 1 1 0 1 1 1 1 1 1 1 1 1 1 1 1 1 1
1 1 1 1 1 1 1 1 1 1 2 2 2 2 2 2 2 1 1 1 2 2 2 1 1 1 1 1 0 0 0 0 0 1 1 1 1 1 1 1 1 1 1 1
2 2 1 2 2 1 1 1 1 1 1 1 1 1 2 2 2 2 2 2 2 1 1 1 1 1 1 1 0 0 0 0 0 0 0 1 1 1 1 1 1 1 1 1
Wind_Direction
246 248 229 233 233 221 219 216 218 239 245 257 252 246 255 259 249 231 208 197 195 197 201 199 197 197 191 192 187 177 175 185 198 197 193 191 199 210 209 204 211 212 214 225
270 256 251 258 245 230 232 231 236 250 261 259 258 240 244 243 230 219 218 213 210 205 203 203 201 200 194 194 188 172 177 191 187 180 182 190 199 200 199 210 218 213 213 221
259 276 307 261 230 214 218 217 208 231 244 255 258 242 230 230 227 223 227 222 214 212 209 207 204 197 196 198 181 172 178 183 182 179 187 204 209 202 211 222 229 239 235 231
211 130 235 245 209 197 211 233 222 233 245 239 240 249 256 241 222 224 225 221 217 211 211 209 199 194 190 179 175 180 184 191 191 185 194 203 203 213 223 223 227 240 250 244
178 219 267 283 240 183 196 252 228 228 245 252 250 296 287 258 218 220 222 217 211 203 201 195 193 185 170 177 179 184 194 198 198 192 195 200 208 219 220 217 238 245 250 249
183 205 239 253 246 189 135 269 250 213 231 244 195 253 262 248 219 222 223 214 203 190 177 183 192 170 168 184 186 200 203 203 196 191 194 201 209 217 219 217 226 240 258 258
206 231 258 257 237 119 174 249 259 215 227 224 216 231 246 244 236 222 219 210 194 182 190 200 184 164 178 193 206 207 195 190 191 192 197 199 201 205 204 217 231 245 257 264
183 217 253 227 145 187 227 266 264 247 237 234 241 249 257 250 236 217 207 203 188 186 205 203 181 170 187 210 209 184 179 186 192 193 195 189 190 204 200 198 216 243 257 275
199 220 245 210 213 231 236 255 258 244 248 230 243 244 247 254 243 225 210 207 194 183 196 206 194 183 198 213 182 172 177 189 193 191 194 189 192 200 203 201 209 226 235 254
246 258 257 254 257 258 245 245 257 253 244 230 234 238 238 235 240 240 226 214 195 175 191 218 213 204 206 195 176 176 185 193 191 189 194 195 201 203 205 208 214 222 231 247
248 264 284 268 246 253 264 267 264 262 252 235 225 236 227 230 230 227 229 225 202 199 207 219 210 211 206 187 173 181 189 193 195 197 196 201 210 214 217 219 218 223 229 232
234 232 228 256 257 251 252 254 248 244 261 251 221 231 236 236 233 223 221 217 210 210 211 216 203 210 209 192 180 181 191 194 195 196 198 203 210 242 245 242 246 248 250 251
240 250 246 262 269 255 247 252 254 242 230 244 245 228 233 242 239 226 222 217 216 214 210 209 209 218 215 196 186 188 194 196 194 195 197 204 206 212 244 266 259 254 255 259
248 256 266 261 259 266 254 257 262 255 247 240 245 241 235 241 235 223 221 217 212 207 208 206 213 230 223 194 191 196 196 199 196 195 198 204 207 211 216 223 249 268 263 263
250 238 243 259 267 266 255 253 263 273 271 268 246 236 230 222 226 231 226 213 200 208 218 212 221 239 220 194 194 195 193 194 192 194 199 203 202 203 212 221 233 258 291 285
266 268 251 246 253 259 255 242 242 255 256 254 251 242 227 213 222 236 230 201 196 217 228 223 230 234 209 192 191 192 197 198 188 186 193 198 199 202 207 214 227 242 255 269
240 261 257 258 255 258 253 243 235 242 243 243 244 238 216 205 227 240 235 220 218 230 232 224 229 228 206 194 188 190 189 192 189 185 193 199 203 205 206 209 220 237 253 258
233 240 239 236 238 248 258 255 242 234 231 236 233 213 204 206 219 230 233 222 223 262 256 239 227 209 198 190 182 179 179 183 182 182 188 197 198 201 203 209 218 233 260 264
255 248 245 240 232 226 233 241 238 229 227 211 203 213 217 218 219 220 206 195 209 242 263 253 210 177 182 190 176 169 168 170 171 174 181 192 195 197 202 208 219 230 239 249
282 274 263 267 256 220 223 224 210 208 216 195 186 188 198 214 205 198 192 224 242 241 246 234 175 171 187 184 167 158 164 169 172 175 178 185 190 197 206 211 218 228 234 241
317 314 302 288 314 280 194 180 159 171 205 175 175 185 195 208 193 181 177 249 287 281 235 191 160 189 185 165 151 151 163 170 174 177 182 188 192 201 209 213 221 228 234 242
324 319 288 127 98 44 19 60 109 131 124 117 128 137 137 137 125 99 128 233 255 312 25 112 192 177 159 144 144 154 162 166 170 175 185 192 195 203 211 215 224 230 229 232
322 321 76 98 109 87 47 48 64 90 102 107 114 124 127 124 118 131 310 317 331 45 36 349 156 135 124 118 142 153 161 171 180 187 194 200 202 204 211 216 225 228 225 230
20 44 54 70 87 87 66 36 44 56 64 64 66 80 105 97 53 26 36 62 41 41 29 87 93 94 84 87 120 147 174 185 191 194 194 194 201 205 209 212 225 232 224 222
50 62 70 79 83 83 85 73 63 60 59 56 51 42 37 57 105 61 34 50 69 50 33 45 53 50 50 78 117 160 196 202 190 180 186 195 202 207 212 215 220 233 224 220
65 63 53 55 88 113 113 99 81 68 69 60 37 31 37 43 62 62 52 50 60 50 31 18 21 33 39 59 101 179 204 212 210 205 200 198 194 201 210 218 229 235 236 234
69 68 64 54 45 56 73 85 94 76 66 82 43 17 28 39 47 48 46 40 38 34 27 21 21 20 20 23 34 28 20 344 291 237 204 203 210 217 218 223 239 245 248 252